This demonstration page uses our WeatherBlox Daily Observations layout. Learn more.

Left ArrowRight Arrow

Hourly Observations for August 27, 2017

Temp ( °F °C ) Dew Point ( °F °C ) Humidity (%) Winds ( mph kmh ) Pressure ( in mb ) Visibility ( mi km ) Precip ( " mm )
12:52 am 00:52 Clear 66 18.9 62 16.7 87 87 Calm 30.08 1019 10 16 0.00 0.00
1:52 am 01:52 Clear 64 17.8 61 16.1 90 90 SE 3 6 30.08 1019 10 16 0.00 0.00
2:52 am 02:52 Clear 65 18.3 61 16.1 87 87 SE 3 6 30.06 1018 10 16 0.00 0.00
3:52 am 03:52 Clear 65 18.3 61 16.1 87 87 SSE 3 6 30.05 1018 10 16 0.00 0.00
4:52 am 04:52 Clear 63 17.2 60 15.6 90 90 SSE 3 6 30.04 1017 10 16 0.00 0.00
5:52 am 05:52 Clear 63 17.2 60 15.6 90 90 Calm 30.04 1017 10 16 0.00 0.00
6:52 am 06:52 Sunny 63 17.2 60 15.6 90 90 S 5 7 30.06 1018 10 16 0.00 0.00
7:52 am 07:52 Sunny 67 19.4 63 17.2 87 87 S 5 7 30.07 1018 10 16 0.00 0.00
8:52 am 08:52 Sunny 71 21.7 66 18.9 84 84 SSW 5 7 30.08 1019 10 16 0.00 0.00
9:52 am 09:52 Sunny 75 23.9 67 19.4 76 76 SSW 9 15 30.07 1018 10 16 0.00 0.00
10:52 am 10:52 Sunny 78 25.6 67 19.4 69 69 S 7 11 30.07 1018 10 16 0.00 0.00
11:52 am 11:52 Mostly Sunny 81 27.2 69 20.6 67 67 SW 9 15 30.06 1018 10 16 0.00 0.00
12:52 pm 12:52 Mostly Cloudy 81 27.2 67 19.4 62 62 NW 6 9 30.05 1018 10 16 0.00 0.00
1:52 pm 13:52 Mostly Sunny 83 28.3 68 20 61 61 NW 6 9 30.03 1017 10 16 0.00 0.00
2:52 pm 14:52 Mostly Cloudy 82 27.8 67 19.4 60 60 WNW 3 6 30.00 1016 10 16 0.00 0.00
3:52 pm 15:52 Mostly Sunny 83 28.3 66 18.9 57 57 Calm 29.98 1015 10 16 0.00 0.00
4:52 pm 16:52 Cloudy 80 26.7 71 21.7 74 74 N 12 19 29.98 1015 10 16 0.00 0.00
5:48 pm 17:48 Sunny with Nearby Thunderstorms 79 26 70 21 74 74 N 10 17 29.94 1014 10 16 0.00 0.03
5:52 pm 17:52 Sunny with Nearby Thunderstorms 79 26.1 70 21.1 74 74 N 10 17 29.98 1015 10 16 0.00 0.03
6:03 pm 18:03 Sunny 79 26.1 70 21.1 74 74 N 10 17 29.94 1014 10 16 0.00 0.00
6:52 pm 18:52 Mostly Cloudy 76 24.4 70 21.1 82 82 N 8 13 29.99 1016 10 16 0.00 0.00
7:52 pm 19:52 Mostly Clear 73 22.8 69 20.6 87 87 NNW 8 13 30.01 1016 10 16 0.00 0.00
8:06 pm 20:06 Mostly Cloudy with Nearby Thunderstorms 72 22.2 69 20.6 91 91 N 12 19 30.00 1016 10 16 0.00 0.03
8:34 pm 20:34 Mostly Cloudy 71 21.7 69 20.6 94 94 N 10 17 30.00 1016 10 16 0.00 0.03
8:42 pm 20:42 Mostly Cloudy 71 21.7 69 20.6 94 94 N 10 17 30.00 1016 10 16 0.00 0.03
8:52 pm 20:52 Mostly Cloudy 70 21.1 69 20.6 97 97 N 7 11 30.00 1016 10 16 0.00 0.03
9:02 pm 21:02 Cloudy 70 21.1 69 20.6 97 97 N 8 13 30.00 1016 10 16 0.00 0.00
9:52 pm 21:52 Cloudy 70 21.1 68 20 93 93 ENE 3 6 30.01 1016 10 16 0.00 0.00
10:52 pm 22:52 Clear 70 21.1 68 20 93 93 VRB 3 6 29.99 1016 10 16 0.00 0.00
11:52 pm 23:52 Mostly Clear 68 20 67 19.4 96 96 NNE 6 9 30.00 1016 10 16 0.00 0.00

Powered by AerisWeather